Weather History for Zephyrhills, FL

Change the Weather History Date:

Friday, January 18, 2013

  Actual Average (KPCM) Record (KPCM)
Temperature  
Mean Temperature 48 °F -  
Max Temperature 62 °F 72 °F 87 °F (1947)
Min Temperature 35 °F 47 °F 24 °F (1977)
Degree Days  
Heating Degree Days 16    
Moisture  
Dew Point 41 °F    
Average Humidity 69    
Maximum Humidity 87    
Minimum Humidity 59    
Precipitation  
Precipitation 0.00 in - - ()
Sea Level Pressure  
Sea Level Pressure 30.28 in    
Wind  
Wind Speed 10 mph (North)    
Max Wind Speed 18 mph    
Max Gust Speed 25 mph    
Visibility 10 miles    
Events      
Averages and records for this station are not official NWS values.
T = Trace of Precipitation, MM = Missing Value Source: NWS Daily Summary

Daily Weather History Graph

Daily Weather History Graph

Search for Another Location

Airport:

Trip Planner

Search our weather history database for the weather conditions in past years. The results will help you decide how hot, cold, wet, or windy it might be!

Date:

Astronomy

Jan. 18, 2013 Rise Set
Actual Time 7:21 AM EST 5:57 PM EST
Civil Twilight 6:55 AM EST 6:22 PM EST
Nautical Twilight 6:27 AM EST 6:51 PM EST
Astronomical Twilight 5:58 AM EST 7:19 PM EST
Moon 11:40 AM EST (1/18) 12:07 AM EST (1/18)
Length of Visible Light 11h 26m
Length of Day
10h 36m
Waxing Crescent, 47% of the Moon is Illuminated
Jan 18
Waxing Crescent
Jan 18
First Quarter
Jan 26
Full
Feb 3
Last Quarter
Feb 10
New

Hourly Weather History & Observations

Time (EST) Temp. Windchill Dew Point Humidity Pressure Visibility Wind Dir Wind Speed Gust Speed Precip Events Conditions
12:15 AM 50.0 °F - 41.0 °F 71% 30.18 in 10.0 mi NW 12.7 mph 23.0 mph N/A   Overcast
12:35 AM 50.0 °F - 39.2 °F 66% 30.18 in 10.0 mi NW 12.7 mph 23.0 mph N/A   Overcast
12:55 AM 50.0 °F - 39.2 °F 66% 30.18 in 10.0 mi NW 13.8 mph 20.7 mph N/A   Overcast
1:15 AM 50.0 °F - 39.2 °F 66% 30.18 in 10.0 mi NNW 15.0 mph 20.7 mph N/A   Overcast
1:35 AM 46.4 °F 40.1 °F 35.6 °F 66% 30.19 in 10.0 mi North 15.0 mph 23.0 mph N/A   Mostly Cloudy
1:55 AM 44.6 °F 38.4 °F 33.8 °F 66% 30.20 in 10.0 mi NNW 12.7 mph - N/A   Scattered Clouds
2:15 AM 42.8 °F 35.8 °F 32.0 °F 66% 30.21 in 10.0 mi NNW 13.8 mph 20.7 mph N/A   Clear
2:35 AM 41.0 °F 34.7 °F 32.0 °F 70% 30.22 in 10.0 mi North 10.4 mph - N/A   Clear
2:55 AM 41.0 °F 35.2 °F 32.0 °F 70% 30.22 in 10.0 mi NNW 9.2 mph - N/A   Clear
3:15 AM 41.0 °F 34.7 °F 32.0 °F 70% 30.22 in 10.0 mi NNW 10.4 mph - N/A   Clear
3:35 AM 41.0 °F 35.8 °F 32.0 °F 70% 30.23 in 10.0 mi NNW 8.1 mph - N/A   Clear
3:55 AM 39.2 °F 35.0 °F 32.0 °F 75% 30.23 in 10.0 mi NNW 5.8 mph - N/A   Clear
4:15 AM 39.2 °F 34.2 °F 32.0 °F 75% 30.23 in 10.0 mi NNW 6.9 mph - N/A   Clear
4:35 AM 37.4 °F 32.8 °F 32.0 °F 81% 30.23 in 10.0 mi NNW 5.8 mph - N/A   Clear
4:55 AM 37.4 °F 32.1 °F 32.0 °F 81% 30.24 in 10.0 mi NNW 6.9 mph - N/A   Clear
5:15 AM 37.4 °F 31.4 °F 32.0 °F 81% 30.24 in 10.0 mi NNW 8.1 mph - N/A   Clear
5:35 AM 37.4 °F 30.3 °F 32.0 °F 81% 30.25 in 10.0 mi NNW 10.4 mph - N/A   Clear
5:55 AM 37.4 °F 30.3 °F 32.0 °F 81% 30.26 in 10.0 mi North 10.4 mph - N/A   Clear
6:15 AM 37.4 °F 32.8 °F 32.0 °F 81% 30.27 in 10.0 mi North 5.8 mph - N/A   Clear
6:35 AM 37.4 °F 32.8 °F 32.0 °F 81% 30.28 in 10.0 mi North 5.8 mph - N/A   Clear
6:55 AM 35.6 °F 31.7 °F 32.0 °F 87% 30.29 in 10.0 mi North 4.6 mph - N/A   Mostly Cloudy
7:15 AM 37.4 °F 34.9 °F 33.8 °F 87% 30.29 in 10.0 mi North 3.5 mph - N/A   Overcast
7:35 AM 37.4 °F 33.8 °F 33.8 °F 87% 30.29 in 10.0 mi North 4.6 mph - N/A   Overcast
7:55 AM 39.2 °F 37.0 °F 33.8 °F 81% 30.30 in 10.0 mi North 3.5 mph - N/A   Overcast
8:15 AM 41.0 °F 38.0 °F 33.8 °F 76% 30.31 in 10.0 mi North 4.6 mph - N/A   Overcast
8:35 AM 41.0 °F 37.1 °F 33.8 °F 76% 30.31 in 10.0 mi North 5.8 mph - N/A   Overcast
8:55 AM 42.8 °F 38.6 °F 33.8 °F 70% 30.31 in 10.0 mi North 6.9 mph - N/A   Overcast
9:15 AM 42.8 °F 39.3 °F 33.8 °F 70% 30.32 in 10.0 mi North 5.8 mph - N/A   Overcast
9:35 AM 44.6 °F 41.4 °F 35.6 °F 71% 30.33 in 10.0 mi NNE 5.8 mph - N/A   Overcast
9:55 AM 46.4 °F 43.5 °F 35.6 °F 66% 30.33 in 10.0 mi North 5.8 mph - N/A   Overcast
10:15 AM 46.4 °F 42.4 °F 35.6 °F 66% 30.33 in 10.0 mi North 8.1 mph - N/A   Overcast
10:35 AM 48.2 °F - 37.4 °F 66% 30.34 in 10.0 mi NNE 8.1 mph - N/A   Overcast
10:55 AM 50.0 °F - 37.4 °F 62% 30.33 in 10.0 mi NNE 9.2 mph - N/A   Overcast
11:15 AM 51.8 °F - 39.2 °F 62% 30.33 in 10.0 mi NNE 10.4 mph - N/A   Overcast
11:35 AM 53.6 °F - 41.0 °F 62% 30.31 in 10.0 mi NNE 10.4 mph - N/A   Overcast
11:55 AM 53.6 °F - 41.0 °F 62% 30.31 in 10.0 mi NNE 8.1 mph - N/A   Overcast
12:15 PM 55.4 °F - 42.8 °F 63% 30.30 in 10.0 mi NNE 9.2 mph - N/A   Overcast
12:35 PM 57.2 °F - 42.8 °F 59% 30.29 in 10.0 mi North 6.9 mph - N/A   Overcast
12:55 PM 59.0 °F - 44.6 °F 59% 30.28 in 10.0 mi North 11.5 mph 17.3 mph N/A   Overcast
1:15 PM 59.0 °F - 44.6 °F 59% 30.27 in 10.0 mi North 11.5 mph - N/A   Overcast
1:35 PM 59.0 °F - 48.2 °F 67% 30.27 in 10.0 mi NNE 13.8 mph 17.3 mph N/A   Overcast
1:55 PM 59.0 °F - 50.0 °F 72% 30.27 in 10.0 mi NE 8.1 mph - N/A   Overcast
2:15 PM 60.8 °F - 50.0 °F 68% 30.26 in 10.0 mi NE 8.1 mph - N/A   Overcast
2:35 PM 60.8 °F - 48.2 °F 63% 30.25 in 10.0 mi NNE 13.8 mph - N/A   Overcast
2:55 PM 62.6 °F - 48.2 °F 59% 30.25 in 10.0 mi NNE 10.4 mph - N/A   Overcast
3:15 PM 60.8 °F - 50.0 °F 68% 30.26 in 10.0 mi NE 10.4 mph - N/A   Overcast
3:35 PM 62.6 °F - 50.0 °F 63% 30.25 in 10.0 mi NE 8.1 mph 17.3 mph N/A   Overcast
3:55 PM 62.6 °F - 50.0 °F 63% 30.26 in 10.0 mi NE 6.9 mph - N/A   Overcast
4:15 PM 62.6 °F - 50.0 °F 63% 30.26 in 10.0 mi ENE 9.2 mph 17.3 mph N/A   Overcast
4:35 PM 62.6 °F - 50.0 °F 63% 30.26 in 10.0 mi NE 12.7 mph 19.6 mph N/A   Overcast
4:55 PM 62.6 °F - 48.2 °F 59% 30.26 in 10.0 mi NE 11.5 mph - N/A   Overcast
5:15 PM 62.6 °F - 48.2 °F 59% 30.27 in 10.0 mi NE 15.0 mph 20.7 mph N/A   Overcast
5:35 PM 62.6 °F - 48.2 °F 59% 30.27 in 10.0 mi NE 15.0 mph 19.6 mph N/A   Overcast
5:55 PM 62.6 °F - 48.2 °F 59% 30.28 in 10.0 mi NE 10.4 mph 18.4 mph N/A   Overcast
6:15 PM 60.8 °F - 48.2 °F 63% 30.28 in 10.0 mi NNE 13.8 mph 20.7 mph N/A   Overcast
6:35 PM 60.8 °F - 48.2 °F 63% 30.29 in 10.0 mi NNE 13.8 mph 20.7 mph N/A   Overcast
6:55 PM 60.8 °F - 48.2 °F 63% 30.30 in 10.0 mi NNE 15.0 mph 23.0 mph N/A   Overcast
7:15 PM 59.0 °F - 48.2 °F 67% 30.31 in 10.0 mi NNE 15.0 mph - N/A   Overcast
7:35 PM 59.0 °F - 46.4 °F 63% 30.31 in 10.0 mi NNE 18.4 mph - N/A   Overcast
7:55 PM 59.0 °F - 46.4 °F 63% 30.31 in 10.0 mi NNE 16.1 mph 25.3 mph N/A   Overcast
8:15 PM 57.2 °F - 46.4 °F 67% 30.31 in 10.0 mi NNE 15.0 mph 20.7 mph N/A   Overcast
8:35 PM 57.2 °F - 46.4 °F 67% 30.32 in 10.0 mi NNE 12.7 mph 18.4 mph N/A   Overcast
8:55 PM 55.4 °F - 46.4 °F 72% 30.32 in 10.0 mi North 11.5 mph - N/A   Overcast
9:15 PM 55.4 °F - 46.4 °F 72% 30.32 in 10.0 mi NNE 11.5 mph 17.3 mph N/A   Overcast
9:35 PM 55.4 °F - 44.6 °F 67% 30.32 in 10.0 mi North 8.1 mph - N/A   Overcast
9:55 PM 55.4 °F - 44.6 °F 67% 30.32 in 10.0 mi NNE 10.4 mph - N/A   Overcast
10:15 PM 55.4 °F - 44.6 °F 67% 30.31 in 10.0 mi North 9.2 mph - N/A   Overcast
10:35 PM 53.6 °F - 44.6 °F 72% 30.31 in 10.0 mi NNE 9.2 mph - N/A   Scattered Clouds
11:15 PM 51.8 °F - 44.6 °F 76% 30.31 in 10.0 mi North 9.2 mph - N/A   Clear
11:35 PM 51.8 °F - 44.6 °F 76% 30.31 in 10.0 mi North 8.1 mph - N/A   Clear
11:55 PM 51.8 °F - 44.6 °F 76% 30.30 in 10.0 mi North 8.1 mph - N/A   Mostly Cloudy